iso_date,epoch_date,Year,Hour,Min,DOY,POS_DOY,Lat,Lon,BP,Ts,Ta,has_bp,has_ts,has_ta,BuoyID,Buoy_Type,Buoy_Owner,Logistics,Hemisphere
2018-01-28T04:46:33Z,1517114794,2018,4,46,28.199,28.199,-73.5002,-113.0112,984.5,-0.58,-999.0,yes,yes,no,300234064823470,BD2GI,AOML,ARAON,South
2018-01-28T04:59:31Z,1517115571,2018,5,0,28.208,28.208,-73.5004,-113.0124,984.5,-0.58,-999.0,yes,yes,no,300234064823470,BD2GI,AOML,ARAON,South
2018-01-28T07:00:28Z,1517122829,2018,7,0,28.292,28.292,-73.504,-113.0222,984.6,-0.54,-999.0,yes,yes,no,300234064823470,BD2GI,AOML,ARAON,South
2018-01-28T07:59:31Z,1517126371,2018,8,0,28.333,28.333,-73.5048,-113.022,984.5,-0.54,-999.0,yes,yes,no,300234064823470,BD2GI,AOML,ARAON,South
2018-01-28T09:00:00Z,1517130000,2018,9,0,28.375,28.375,-73.5048,-113.0218,984.2,-0.51,-999.0,yes,yes,no,300234064823470,BD2GI,AOML,ARAON,South
2018-01-28T10:00:28Z,1517133629,2018,10,0,28.417,28.417,-73.5036,-113.0198,983.8,-0.51,-999.0,yes,yes,no,300234064823470,BD2GI,AOML,ARAON,South
2018-01-28T10:59:31Z,1517137171,2018,11,0,28.458,28.458,-73.502,-113.0216,983.6,-0.47,-999.0,yes,yes,no,300234064823470,BD2GI,AOML,ARAON,South
2018-01-28T12:00:00Z,1517140800,2018,12,0,28.5,28.5,-73.501,-113.026,983.5,-0.47,-999.0,yes,yes,no,300234064823470,BD2GI,AOML,ARAON,South
2018-01-28T13:00:28Z,1517144429,2018,13,0,28.542,28.542,-73.499,-113.0304,983.7,-0.47,-999.0,yes,yes,no,300234064823470,BD2GI,AOML,ARAON,South
2018-01-28T13:59:31Z,1517147971,2018,14,0,28.583,28.583,-73.4982,-113.0368,983.6,-0.47,-999.0,yes,yes,no,300234064823470,BD2GI,AOML,ARAON,South
2018-01-28T15:00:00Z,1517151600,2018,15,0,28.625,28.625,-73.497,-113.047,983.6,-0.47,-999.0,yes,yes,no,300234064823470,BD2GI,AOML,ARAON,South
2018-01-28T16:00:28Z,1517155229,2018,16,0,28.667,28.667,-73.4972,-113.0552,983.5,-0.51,-999.0,yes,yes,no,300234064823470,BD2GI,AOML,ARAON,South
2018-01-28T16:59:31Z,1517158771,2018,17,0,28.708,28.708,-73.498,-113.0616,983.3,-0.47,-999.0,yes,yes,no,300234064823470,BD2GI,AOML,ARAON,South
2018-01-28T18:00:00Z,1517162400,2018,18,0,28.75,28.75,-73.4992,-113.0652,982.9,-0.51,-999.0,yes,yes,no,300234064823470,BD2GI,AOML,ARAON,South
2018-01-28T19:00:28Z,1517166029,2018,19,0,28.792,28.792,-73.4994,-113.0694,982.6,-0.47,-999.0,yes,yes,no,300234064823470,BD2GI,AOML,ARAON,South
2018-01-28T19:59:31Z,1517169571,2018,20,0,28.833,28.833,-73.4996,-113.0714,982.0,-0.47,-999.0,yes,yes,no,300234064823470,BD2GI,AOML,ARAON,South
2018-01-28T21:00:00Z,1517173200,2018,21,0,28.875,28.875,-73.4996,-113.0722,982.0,-0.51,-999.0,yes,yes,no,300234064823470,BD2GI,AOML,ARAON,South
2018-01-28T22:00:28Z,1517176829,2018,22,0,28.917,28.917,-73.499,-113.0724,981.8,-0.47,-999.0,yes,yes,no,300234064823470,BD2GI,AOML,ARAON,South
2018-01-28T22:59:31Z,1517180371,2018,23,0,28.958,28.958,-73.4968,-113.0722,981.6,-0.47,-999.0,yes,yes,no,300234064823470,BD2GI,AOML,ARAON,South
2018-01-29T00:00:00Z,1517184000,2018,0,0,29.0,29.0,-73.494,-113.0756,981.6,-0.47,-999.0,yes,yes,no,300234064823470,BD2GI,AOML,ARAON,South
2018-01-29T01:00:28Z,1517187629,2018,1,0,29.042,29.042,-73.4914,-113.083,981.5,-0.47,-999.0,yes,yes,no,300234064823470,BD2GI,AOML,ARAON,South
2018-01-29T01:59:31Z,1517191171,2018,2,0,29.083,29.083,-73.4894,-113.0952,981.3,-0.51,-999.0,yes,yes,no,300234064823470,BD2GI,AOML,ARAON,South
2018-01-29T03:00:00Z,1517194800,2018,3,0,29.125,29.125,-73.487,-113.111,980.9,-0.51,-999.0,yes,yes,no,300234064823470,BD2GI,AOML,ARAON,South
2018-01-29T04:00:28Z,1517198429,2018,4,0,29.167,29.167,-73.4854,-113.1274,980.8,-0.51,-999.0,yes,yes,no,300234064823470,BD2GI,AOML,ARAON,South
2018-01-29T04:59:31Z,1517201971,2018,5,0,29.208,29.208,-73.484,-113.1446,980.6,-0.51,-999.0,yes,yes,no,300234064823470,BD2GI,AOML,ARAON,South
2018-01-29T06:00:00Z,1517205600,2018,6,0,29.25,29.25,-73.4832,-113.1614,980.5,-0.54,-999.0,yes,yes,no,300234064823470,BD2GI,AOML,ARAON,South
2018-01-29T07:00:28Z,1517209229,2018,7,0,29.292,29.292,-73.478,-113.192,980.7,-0.51,-999.0,yes,yes,no,300234064823470,BD2GI,AOML,ARAON,South
2018-01-29T07:59:31Z,1517212771,2018,8,0,29.333,29.333,-73.4756,-113.2016,980.7,-0.51,-999.0,yes,yes,no,300234064823470,BD2GI,AOML,ARAON,South
2018-01-29T09:00:00Z,1517216400,2018,9,0,29.375,29.375,-73.4738,-113.2096,980.6,-0.54,-999.0,yes,yes,no,300234064823470,BD2GI,AOML,ARAON,South
2018-01-29T10:00:28Z,1517220029,2018,10,0,29.417,29.417,-73.4708,-113.2154,980.7,-0.51,-999.0,yes,yes,no,300234064823470,BD2GI,AOML,ARAON,South
2018-01-29T10:59:31Z,1517223571,2018,11,0,29.458,29.458,-73.4676,-113.2218,980.8,-0.51,-999.0,yes,yes,no,300234064823470,BD2GI,AOML,ARAON,South
2018-01-29T12:00:00Z,1517227200,2018,12,0,29.5,29.5,-73.4638,-113.2262,980.9,-0.54,-999.0,yes,yes,no,300234064823470,BD2GI,AOML,ARAON,South
2018-01-29T13:00:28Z,1517230829,2018,13,0,29.542,29.542,-73.4606,-113.2346,980.7,-0.54,-999.0,yes,yes,no,300234064823470,BD2GI,AOML,ARAON,South
2018-01-29T13:59:31Z,1517234371,2018,14,0,29.583,29.583,-73.4572,-113.2434,980.8,-0.51,-999.0,yes,yes,no,300234064823470,BD2GI,AOML,ARAON,South
2018-01-29T15:00:00Z,1517238000,2018,15,0,29.625,29.625,-73.4572,-113.2434,980.5,-0.51,-999.0,yes,yes,no,300234064823470,BD2GI,AOML,ARAON,South
2018-01-29T16:00:28Z,1517241629,2018,16,0,29.667,29.667,-73.4526,-113.2582,980.4,-0.51,-999.0,yes,yes,no,300234064823470,BD2GI,AOML,ARAON,South
2018-01-29T16:59:31Z,1517245171,2018,17,0,29.708,29.708,-73.4506,-113.2684,980.4,-0.51,-999.0,yes,yes,no,300234064823470,BD2GI,AOML,ARAON,South
2018-01-29T18:00:00Z,1517248800,2018,18,0,29.75,29.75,-73.449,-113.2766,980.3,-0.51,-999.0,yes,yes,no,300234064823470,BD2GI,AOML,ARAON,South
2018-01-29T19:00:28Z,1517252429,2018,19,0,29.792,29.792,-73.447,-113.287,980.5,-0.51,-999.0,yes,yes,no,300234064823470,BD2GI,AOML,ARAON,South
2018-01-29T19:59:31Z,1517255971,2018,20,0,29.833,29.833,-73.446,-113.2986,980.5,-0.51,-999.0,yes,yes,no,300234064823470,BD2GI,AOML,ARAON,South
2018-01-29T21:00:00Z,1517259600,2018,21,0,29.875,29.875,-73.4448,-113.3098,980.4,-0.51,-999.0,yes,yes,no,300234064823470,BD2GI,AOML,ARAON,South
2018-01-29T22:00:28Z,1517263229,2018,22,0,29.917,29.917,-73.4442,-113.3186,980.3,-0.51,-999.0,yes,yes,no,300234064823470,BD2GI,AOML,ARAON,South
2018-01-29T22:59:31Z,1517266771,2018,23,0,29.958,29.958,-73.4432,-113.327,980.4,-0.51,-999.0,yes,yes,no,300234064823470,BD2GI,AOML,ARAON,South
2018-01-30T00:00:00Z,1517270400,2018,0,0,30.0,30.0,-73.4422,-113.336,980.5,-0.51,-999.0,yes,yes,no,300234064823470,BD2GI,AOML,ARAON,South
2018-01-30T01:00:28Z,1517274029,2018,1,0,30.042,30.042,-73.441,-113.343,980.4,-0.51,-999.0,yes,yes,no,300234064823470,BD2GI,AOML,ARAON,South
2018-01-30T01:59:31Z,1517277571,2018,2,0,30.083,30.083,-73.4396,-113.3512,980.3,-0.51,-999.0,yes,yes,no,300234064823470,BD2GI,AOML,ARAON,South
2018-01-30T03:00:00Z,1517281200,2018,3,0,30.125,30.125,-73.4374,-113.3634,980.3,-0.51,-999.0,yes,yes,no,300234064823470,BD2GI,AOML,ARAON,South
2018-01-30T04:00:28Z,1517284829,2018,4,0,30.167,30.167,-73.4348,-113.3752,980.3,-0.54,-999.0,yes,yes,no,300234064823470,BD2GI,AOML,ARAON,South
2018-01-30T04:59:31Z,1517288371,2018,5,0,30.208,30.208,-73.4324,-113.3916,980.5,-0.54,-999.0,yes,yes,no,300234064823470,BD2GI,AOML,ARAON,South
2018-01-30T06:00:00Z,1517292000,2018,6,0,30.25,30.25,-73.4296,-113.414,980.7,-0.54,-999.0,yes,yes,no,300234064823470,BD2GI,AOML,ARAON,South
2018-01-30T07:00:28Z,1517295629,2018,7,0,30.292,30.292,-73.4274,-113.4384,980.7,-0.54,-999.0,yes,yes,no,300234064823470,BD2GI,AOML,ARAON,South
2018-01-30T07:59:31Z,1517299171,2018,8,0,30.333,30.333,-73.4256,-113.4622,981.0,-0.54,-999.0,yes,yes,no,300234064823470,BD2GI,AOML,ARAON,South
2018-01-30T09:00:00Z,1517302800,2018,9,0,30.375,30.375,-73.4244,-113.4862,981.0,-0.58,-999.0,yes,yes,no,300234064823470,BD2GI,AOML,ARAON,South
2018-01-30T10:00:28Z,1517306429,2018,10,0,30.417,30.417,-73.4238,-113.5042,981.2,-0.58,-999.0,yes,yes,no,300234064823470,BD2GI,AOML,ARAON,South
2018-01-30T10:59:31Z,1517309971,2018,11,0,30.458,30.458,-73.423,-113.5176,981.3,-0.58,-999.0,yes,yes,no,300234064823470,BD2GI,AOML,ARAON,South
2018-01-30T12:00:00Z,1517313600,2018,12,0,30.5,30.5,-73.4214,-113.5288,981.5,-0.58,-999.0,yes,yes,no,300234064823470,BD2GI,AOML,ARAON,South
2018-01-30T13:00:28Z,1517317229,2018,13,0,30.542,30.542,-73.4192,-113.538,981.4,-0.61,-999.0,yes,yes,no,300234064823470,BD2GI,AOML,ARAON,South
2018-01-30T13:59:31Z,1517320771,2018,14,0,30.583,30.583,-73.4164,-113.5452,981.5,-0.61,-999.0,yes,yes,no,300234064823470,BD2GI,AOML,ARAON,South
2018-01-30T15:00:00Z,1517324400,2018,15,0,30.625,30.625,-73.4132,-113.554,981.6,-0.61,-999.0,yes,yes,no,300234064823470,BD2GI,AOML,ARAON,South
2018-01-30T16:00:28Z,1517328029,2018,16,0,30.667,30.667,-73.4102,-113.5668,981.6,-0.61,-999.0,yes,yes,no,300234064823470,BD2GI,AOML,ARAON,South
2018-01-30T16:59:31Z,1517331571,2018,17,0,30.708,30.708,-73.4068,-113.5828,981.8,-0.61,-999.0,yes,yes,no,300234064823470,BD2GI,AOML,ARAON,South
2018-01-30T18:00:00Z,1517335200,2018,18,0,30.75,30.75,-73.4034,-113.6036,981.6,-0.61,-999.0,yes,yes,no,300234064823470,BD2GI,AOML,ARAON,South
2018-01-30T19:00:28Z,1517338829,2018,19,0,30.792,30.792,-73.4004,-113.6298,981.7,-0.61,-999.0,yes,yes,no,300234064823470,BD2GI,AOML,ARAON,South
2018-01-30T19:59:31Z,1517342371,2018,20,0,30.833,30.833,-73.3986,-113.6532,981.9,-0.61,-999.0,yes,yes,no,300234064823470,BD2GI,AOML,ARAON,South
2018-01-30T21:00:00Z,1517346000,2018,21,0,30.875,30.875,-73.3968,-113.6822,981.6,-0.64,-999.0,yes,yes,no,300234064823470,BD2GI,AOML,ARAON,South
2018-01-30T22:00:28Z,1517349629,2018,22,0,30.917,30.917,-73.396,-113.7106,981.6,-0.64,-999.0,yes,yes,no,300234064823470,BD2GI,AOML,ARAON,South
2018-01-30T22:59:31Z,1517353171,2018,23,0,30.958,30.958,-73.3948,-113.737,981.7,-0.64,-999.0,yes,yes,no,300234064823470,BD2GI,AOML,ARAON,South
2018-01-31T00:00:00Z,1517356800,2018,0,0,31.0,31.0,-73.3948,-113.7612,981.5,-0.64,-999.0,yes,yes,no,300234064823470,BD2GI,AOML,ARAON,South
2018-01-31T01:00:28Z,1517360429,2018,1,0,31.042,31.042,-73.3938,-113.7834,981.5,-0.64,-999.0,yes,yes,no,300234064823470,BD2GI,AOML,ARAON,South
2018-01-31T01:59:31Z,1517363971,2018,2,0,31.083,31.083,-73.3926,-113.801,981.2,-0.64,-999.0,yes,yes,no,300234064823470,BD2GI,AOML,ARAON,South
2018-01-31T03:00:00Z,1517367600,2018,3,0,31.125,31.125,-73.3912,-113.8184,981.0,-0.64,-999.0,yes,yes,no,300234064823470,BD2GI,AOML,ARAON,South
2018-01-31T04:00:28Z,1517371229,2018,4,0,31.167,31.167,-73.3882,-113.8382,980.9,-0.64,-999.0,yes,yes,no,300234064823470,BD2GI,AOML,ARAON,South
2018-01-31T04:59:31Z,1517374771,2018,5,0,31.208,31.208,-73.3844,-113.8586,981.1,-0.64,-999.0,yes,yes,no,300234064823470,BD2GI,AOML,ARAON,South
2018-01-31T06:00:00Z,1517378400,2018,6,0,31.25,31.25,-73.4118,-114.0278,981.1,-0.61,-999.0,yes,yes,no,300234064823470,BD2GI,AOML,ARAON,South
2018-01-31T07:00:28Z,1517382029,2018,7,0,31.292,31.292,-73.3766,-113.9078,981.1,-0.61,-999.0,yes,yes,no,300234064823470,BD2GI,AOML,ARAON,South
2018-01-31T07:59:31Z,1517385571,2018,8,0,31.333,31.333,-73.3728,-113.9302,980.9,-0.61,-999.0,yes,yes,no,300234064823470,BD2GI,AOML,ARAON,South
2018-01-31T09:00:00Z,1517389200,2018,9,0,31.375,31.375,-73.3694,-113.9578,980.8,-0.61,-999.0,yes,yes,no,300234064823470,BD2GI,AOML,ARAON,South
2018-01-31T10:00:28Z,1517392829,2018,10,0,31.417,31.417,-73.3662,-113.9824,980.7,-0.61,-999.0,yes,yes,no,300234064823470,BD2GI,AOML,ARAON,South
2018-01-31T10:59:31Z,1517396371,2018,11,0,31.458,31.458,-73.3632,-114.0042,980.7,-0.61,-999.0,yes,yes,no,300234064823470,BD2GI,AOML,ARAON,South
2018-01-31T12:00:00Z,1517400000,2018,12,0,31.5,31.5,-73.3608,-114.021,980.8,-0.61,-999.0,yes,yes,no,300234064823470,BD2GI,AOML,ARAON,South
2018-01-31T13:00:28Z,1517403629,2018,13,0,31.542,31.542,-73.359,-114.0322,980.8,-0.58,-999.0,yes,yes,no,300234064823470,BD2GI,AOML,ARAON,South
2018-01-31T13:59:31Z,1517407171,2018,14,0,31.583,31.583,-73.3568,-114.0414,981.1,-0.58,-999.0,yes,yes,no,300234064823470,BD2GI,AOML,ARAON,South
2018-01-31T15:00:00Z,1517410800,2018,15,0,31.625,31.625,-73.354,-114.0484,981.4,-0.61,-999.0,yes,yes,no,300234064823470,BD2GI,AOML,ARAON,South
2018-01-31T16:00:28Z,1517414429,2018,16,0,31.667,31.667,-73.3506,-114.0552,981.8,-0.58,-999.0,yes,yes,no,300234064823470,BD2GI,AOML,ARAON,South
2018-01-31T16:59:31Z,1517417971,2018,17,0,31.708,31.708,-73.3468,-114.0632,982.2,-0.58,-999.0,yes,yes,no,300234064823470,BD2GI,AOML,ARAON,South
2018-01-31T18:00:00Z,1517421600,2018,18,0,31.75,31.75,-73.3422,-114.0736,982.4,-0.61,-999.0,yes,yes,no,300234064823470,BD2GI,AOML,ARAON,South
2018-01-31T19:00:28Z,1517425229,2018,19,0,31.792,31.792,-73.338,-114.087,982.6,-0.58,-999.0,yes,yes,no,300234064823470,BD2GI,AOML,ARAON,South
2018-01-31T19:59:31Z,1517428771,2018,20,0,31.833,31.833,-73.3344,-114.1054,982.9,-0.61,-999.0,yes,yes,no,300234064823470,BD2GI,AOML,ARAON,South
2018-01-31T21:00:00Z,1517432400,2018,21,0,31.875,31.875,-73.3322,-114.1222,983.0,-0.61,-999.0,yes,yes,no,300234064823470,BD2GI,AOML,ARAON,South
2018-01-31T22:00:28Z,1517436029,2018,22,0,31.917,31.917,-73.3314,-114.137,982.9,-0.61,-999.0,yes,yes,no,300234064823470,BD2GI,AOML,ARAON,South
2018-01-31T22:59:31Z,1517439571,2018,23,0,31.958,31.958,-73.3314,-114.137,982.9,-0.61,-999.0,yes,yes,no,300234064823470,BD2GI,AOML,ARAON,South
2018-02-01T00:00:00Z,1517443200,2018,0,0,32.0,32.0,-73.3326,-114.173,983.2,-0.61,-999.0,yes,yes,no,300234064823470,BD2GI,AOML,ARAON,South
2018-02-01T01:00:28Z,1517446829,2018,1,0,32.042,32.042,-73.3326,-114.173,983.6,-0.58,-999.0,yes,yes,no,300234064823470,BD2GI,AOML,ARAON,South
2018-02-01T01:59:31Z,1517450371,2018,2,0,32.083,32.083,-73.3372,-114.1926,983.3,-0.54,-999.0,yes,yes,no,300234064823470,BD2GI,AOML,ARAON,South
2018-02-01T03:00:00Z,1517454000,2018,3,0,32.125,32.125,-73.3394,-114.1962,983.4,-0.54,-999.0,yes,yes,no,300234064823470,BD2GI,AOML,ARAON,South
2018-02-01T04:00:28Z,1517457629,2018,4,0,32.167,32.167,-73.3412,-114.1984,983.2,-0.54,-999.0,yes,yes,no,300234064823470,BD2GI,AOML,ARAON,South
2018-02-01T04:59:31Z,1517461171,2018,5,0,32.208,32.208,-73.3424,-114.1938,983.1,-0.54,-999.0,yes,yes,no,300234064823470,BD2GI,AOML,ARAON,South
2018-02-01T06:00:00Z,1517464800,2018,6,0,32.25,32.25,-73.3414,-114.1878,982.8,-0.54,-999.0,yes,yes,no,300234064823470,BD2GI,AOML,ARAON,South
2018-02-01T07:00:28Z,1517468429,2018,7,0,32.292,32.292,-73.3396,-114.1838,983.0,-0.51,-999.0,yes,yes,no,300234064823470,BD2GI,AOML,ARAON,South
2018-02-01T07:59:31Z,1517471971,2018,8,0,32.333,32.333,-73.3356,-114.1838,983.2,-0.54,-999.0,yes,yes,no,300234064823470,BD2GI,AOML,ARAON,South
2018-02-01T09:00:00Z,1517475600,2018,9,0,32.375,32.375,-73.331,-114.1902,983.2,-0.54,-999.0,yes,yes,no,300234064823470,BD2GI,AOML,ARAON,South
2018-02-01T10:00:28Z,1517479229,2018,10,0,32.417,32.417,-73.3252,-114.2038,983.3,-0.54,-999.0,yes,yes,no,300234064823470,BD2GI,AOML,ARAON,South
2018-02-01T10:59:31Z,1517482771,2018,11,0,32.458,32.458,-73.3216,-114.2178,983.3,-0.54,-999.0,yes,yes,no,300234064823470,BD2GI,AOML,ARAON,South
2018-02-01T12:00:00Z,1517486400,2018,12,0,32.5,32.5,-73.3192,-114.231,983.3,-0.54,-999.0,yes,yes,no,300234064823470,BD2GI,AOML,ARAON,South
2018-02-01T13:00:28Z,1517490029,2018,13,0,32.542,32.542,-73.3186,-114.238,983.5,-0.54,-999.0,yes,yes,no,300234064823470,BD2GI,AOML,ARAON,South
2018-02-01T13:59:31Z,1517493571,2018,14,0,32.583,32.583,-73.319,-114.2414,984.1,-0.54,-999.0,yes,yes,no,300234064823470,BD2GI,AOML,ARAON,South
2018-02-01T15:00:00Z,1517497200,2018,15,0,32.625,32.625,-73.3202,-114.2402,984.7,-0.54,-999.0,yes,yes,no,300234064823470,BD2GI,AOML,ARAON,South
2018-02-01T16:00:28Z,1517500829,2018,16,0,32.667,32.667,-73.3212,-114.2368,985.1,-0.54,-999.0,yes,yes,no,300234064823470,BD2GI,AOML,ARAON,South
2018-02-01T16:59:31Z,1517504371,2018,17,0,32.708,32.708,-73.322,-114.23,985.2,-0.54,-999.0,yes,yes,no,300234064823470,BD2GI,AOML,ARAON,South
2018-02-01T18:00:00Z,1517508000,2018,18,0,32.75,32.75,-73.3214,-114.2222,985.2,-0.54,-999.0,yes,yes,no,300234064823470,BD2GI,AOML,ARAON,South
2018-02-01T19:00:28Z,1517511629,2018,19,0,32.792,32.792,-73.3202,-114.2156,985.6,-0.54,-999.0,yes,yes,no,300234064823470,BD2GI,AOML,ARAON,South
2018-02-01T19:59:31Z,1517515171,2018,20,0,32.833,32.833,-73.3202,-114.2156,985.4,-0.51,-999.0,yes,yes,no,300234064823470,BD2GI,AOML,ARAON,South
2018-02-01T21:00:00Z,1517518800,2018,21,0,32.875,32.875,-73.3154,-114.206,985.3,-0.51,-999.0,yes,yes,no,300234064823470,BD2GI,AOML,ARAON,South
2018-02-01T22:00:28Z,1517522429,2018,22,0,32.917,32.917,-73.3122,-114.2138,984.8,-0.51,-999.0,yes,yes,no,300234064823470,BD2GI,AOML,ARAON,South
2018-02-01T22:59:31Z,1517525971,2018,23,0,32.958,32.958,-73.3102,-114.2194,984.9,-0.47,-999.0,yes,yes,no,300234064823470,BD2GI,AOML,ARAON,South
2018-02-02T00:00:00Z,1517529600,2018,0,0,33.0,33.0,-73.3098,-114.2326,984.9,-0.47,-999.0,yes,yes,no,300234064823470,BD2GI,AOML,ARAON,South
2018-02-02T01:00:28Z,1517533229,2018,1,0,33.042,33.042,-73.3116,-114.246,984.7,-0.47,-999.0,yes,yes,no,300234064823470,BD2GI,AOML,ARAON,South
2018-02-02T01:59:31Z,1517536771,2018,2,0,33.083,33.083,-73.3146,-114.261,984.6,-0.47,-999.0,yes,yes,no,300234064823470,BD2GI,AOML,ARAON,South
2018-02-02T03:00:00Z,1517540400,2018,3,0,33.125,33.125,-73.3194,-114.271,984.8,-0.44,-999.0,yes,yes,no,300234064823470,BD2GI,AOML,ARAON,South
2018-02-02T04:00:28Z,1517544029,2018,4,0,33.167,33.167,-73.3194,-114.271,984.7,-0.44,-999.0,yes,yes,no,300234064823470,BD2GI,AOML,ARAON,South
2018-02-02T04:59:31Z,1517547571,2018,5,0,33.208,33.208,-73.33,-114.2758,984.9,-0.44,-999.0,yes,yes,no,300234064823470,BD2GI,AOML,ARAON,South
2018-02-02T06:00:00Z,1517551200,2018,6,0,33.25,33.25,-73.3334,-114.2704,985.1,-0.54,-999.0,yes,yes,no,300234064823470,BD2GI,AOML,ARAON,South
2018-02-02T07:00:28Z,1517554829,2018,7,0,33.292,33.292,-73.3352,-114.2652,985.4,-0.54,-999.0,yes,yes,no,300234064823470,BD2GI,AOML,ARAON,South
2018-02-02T07:59:31Z,1517558371,2018,8,0,33.333,33.333,-73.3358,-114.266,985.3,-0.58,-999.0,yes,yes,no,300234064823470,BD2GI,AOML,ARAON,South
2018-02-02T09:00:00Z,1517562000,2018,9,0,33.375,33.375,-73.3366,-114.273,985.5,-0.54,-999.0,yes,yes,no,300234064823470,BD2GI,AOML,ARAON,South
2018-02-02T10:00:28Z,1517565629,2018,10,0,33.417,33.417,-73.3376,-114.2836,985.7,-0.54,-999.0,yes,yes,no,300234064823470,BD2GI,AOML,ARAON,South
2018-02-02T10:59:31Z,1517569171,2018,11,0,33.458,33.458,-73.3398,-114.3008,985.8,-0.51,-999.0,yes,yes,no,300234064823470,BD2GI,AOML,ARAON,South
2018-02-02T12:00:00Z,1517572800,2018,12,0,33.5,33.5,-73.3418,-114.3182,986.1,-0.47,-999.0,yes,yes,no,300234064823470,BD2GI,AOML,ARAON,South
2018-02-02T13:00:28Z,1517576429,2018,13,0,33.542,33.542,-73.3444,-114.3366,986.2,-0.47,-999.0,yes,yes,no,300234064823470,BD2GI,AOML,ARAON,South
2018-02-02T13:59:31Z,1517579971,2018,14,0,33.583,33.583,-73.3444,-114.3476,986.5,-0.47,-999.0,yes,yes,no,300234064823470,BD2GI,AOML,ARAON,South
2018-02-02T15:00:00Z,1517583600,2018,15,0,33.625,33.625,-73.3496,-114.358,986.3,-0.47,-999.0,yes,yes,no,300234064823470,BD2GI,AOML,ARAON,South
2018-02-02T16:00:28Z,1517587229,2018,16,0,33.667,33.667,-73.3514,-114.362,986.4,-0.44,-999.0,yes,yes,no,300234064823470,BD2GI,AOML,ARAON,South
2018-02-02T16:59:31Z,1517590771,2018,17,0,33.708,33.708,-73.3522,-114.3574,986.2,-0.44,-999.0,yes,yes,no,300234064823470,BD2GI,AOML,ARAON,South
2018-02-02T18:00:00Z,1517594400,2018,18,0,33.75,33.75,-73.3528,-114.35,986.2,-0.44,-999.0,yes,yes,no,300234064823470,BD2GI,AOML,ARAON,South
2018-02-02T19:00:28Z,1517598029,2018,19,0,33.792,33.792,-73.3526,-114.3452,986.4,-0.44,-999.0,yes,yes,no,300234064823470,BD2GI,AOML,ARAON,South
2018-02-02T19:59:31Z,1517601571,2018,20,0,33.833,33.833,-73.3524,-114.3398,986.2,-0.44,-999.0,yes,yes,no,300234064823470,BD2GI,AOML,ARAON,South
2018-02-02T21:00:00Z,1517605200,2018,21,0,33.875,33.875,-73.3524,-114.3398,986.1,-0.44,-999.0,yes,yes,no,300234064823470,BD2GI,AOML,ARAON,South
2018-02-02T22:00:28Z,1517608829,2018,22,0,33.917,33.917,-73.3526,-114.3344,986.0,-0.44,-999.0,yes,yes,no,300234064823470,BD2GI,AOML,ARAON,South
2018-02-02T22:59:31Z,1517612371,2018,23,0,33.958,33.958,-73.3522,-114.3366,986.2,-0.44,-999.0,yes,yes,no,300234064823470,BD2GI,AOML,ARAON,South
2018-02-03T00:00:00Z,1517616000,2018,0,0,34.0,34.0,-73.352,-114.3418,986.1,-0.44,-999.0,yes,yes,no,300234064823470,BD2GI,AOML,ARAON,South
2018-02-03T01:00:28Z,1517619629,2018,1,0,34.042,34.042,-73.3528,-114.3496,986.0,-0.41,-999.0,yes,yes,no,300234064823470,BD2GI,AOML,ARAON,South
2018-02-03T01:59:31Z,1517623171,2018,2,0,34.083,34.083,-73.3542,-114.3608,985.6,-0.44,-999.0,yes,yes,no,300234064823470,BD2GI,AOML,ARAON,South
2018-02-03T03:00:00Z,1517626800,2018,3,0,34.125,34.125,-73.3568,-114.3698,985.3,-0.44,-999.0,yes,yes,no,300234064823470,BD2GI,AOML,ARAON,South
2018-02-03T04:00:28Z,1517630429,2018,4,0,34.167,34.167,-73.3608,-114.3814,985.2,-0.44,-999.0,yes,yes,no,300234064823470,BD2GI,AOML,ARAON,South
2018-02-03T04:59:31Z,1517633971,2018,5,0,34.208,34.208,-73.3654,-114.3916,985.0,-0.44,-999.0,yes,yes,no,300234064823470,BD2GI,AOML,ARAON,South
2018-02-03T06:00:00Z,1517637600,2018,6,0,34.25,34.25,-73.3704,-114.4,984.7,-0.44,-999.0,yes,yes,no,300234064823470,BD2GI,AOML,ARAON,South
2018-02-03T07:00:28Z,1517641229,2018,7,0,34.292,34.292,-73.3746,-114.4098,984.5,-0.47,-999.0,yes,yes,no,300234064823470,BD2GI,AOML,ARAON,South
2018-02-03T07:59:31Z,1517644771,2018,8,0,34.333,34.333,-73.3788,-114.4196,984.2,-0.47,-999.0,yes,yes,no,300234064823470,BD2GI,AOML,ARAON,South
2018-02-03T09:00:00Z,1517648400,2018,9,0,34.375,34.375,-73.3832,-114.4312,983.5,-0.47,-999.0,yes,yes,no,300234064823470,BD2GI,AOML,ARAON,South
2018-02-03T10:00:28Z,1517652029,2018,10,0,34.417,34.417,-73.388,-114.4428,983.2,-0.47,-999.0,yes,yes,no,300234064823470,BD2GI,AOML,ARAON,South
2018-02-03T10:59:31Z,1517655571,2018,11,0,34.458,34.458,-73.3928,-114.459,983.0,-0.47,-999.0,yes,yes,no,300234064823470,BD2GI,AOML,ARAON,South
2018-02-03T12:00:00Z,1517659200,2018,12,0,34.5,34.5,-73.3976,-114.4732,982.7,-0.51,-999.0,yes,yes,no,300234064823470,BD2GI,AOML,ARAON,South
2018-02-03T13:00:28Z,1517662829,2018,13,0,34.542,34.542,-73.4036,-114.4876,981.9,-0.47,-999.0,yes,yes,no,300234064823470,BD2GI,AOML,ARAON,South
2018-02-03T13:59:31Z,1517666371,2018,14,0,34.583,34.583,-73.4094,-114.5002,981.4,-0.51,-999.0,yes,yes,no,300234064823470,BD2GI,AOML,ARAON,South
2018-02-03T15:00:00Z,1517670000,2018,15,0,34.625,34.625,-73.4162,-114.5148,980.6,-0.47,-999.0,yes,yes,no,300234064823470,BD2GI,AOML,ARAON,South
2018-02-03T16:00:28Z,1517673629,2018,16,0,34.667,34.667,-73.4228,-114.528,980.0,-0.47,-999.0,yes,yes,no,300234064823470,BD2GI,AOML,ARAON,South
2018-02-03T16:59:31Z,1517677171,2018,17,0,34.708,34.708,-73.4304,-114.5416,979.4,-0.47,-999.0,yes,yes,no,300234064823470,BD2GI,AOML,ARAON,South
2018-02-03T18:00:00Z,1517680800,2018,18,0,34.75,34.75,-73.4368,-114.5524,979.1,-0.47,-999.0,yes,yes,no,300234064823470,BD2GI,AOML,ARAON,South
2018-02-03T19:00:28Z,1517684429,2018,19,0,34.792,34.792,-73.4432,-114.5656,978.7,-0.47,-999.0,yes,yes,no,300234064823470,BD2GI,AOML,ARAON,South
2018-02-03T19:59:31Z,1517687971,2018,20,0,34.833,34.833,-73.4496,-114.5768,978.4,-0.47,-999.0,yes,yes,no,300234064823470,BD2GI,AOML,ARAON,South
2018-02-03T21:00:00Z,1517691600,2018,21,0,34.875,34.875,-73.4554,-114.588,977.8,-0.44,-999.0,yes,yes,no,300234064823470,BD2GI,AOML,ARAON,South
2018-02-03T22:00:28Z,1517695229,2018,22,0,34.917,34.917,-73.4612,-114.6014,977.3,-0.47,-999.0,yes,yes,no,300234064823470,BD2GI,AOML,ARAON,South
2018-02-03T22:59:31Z,1517698771,2018,23,0,34.958,34.958,-73.467,-114.6132,976.7,-0.47,-999.0,yes,yes,no,300234064823470,BD2GI,AOML,ARAON,South
2018-02-04T00:00:00Z,1517702400,2018,0,0,35.0,35.0,-73.4748,-114.6174,976.0,-0.47,-999.0,yes,yes,no,300234064823470,BD2GI,AOML,ARAON,South
2018-02-04T01:00:28Z,1517706029,2018,1,0,35.042,35.042,-73.4782,-114.6392,975.4,-0.47,-999.0,yes,yes,no,300234064823470,BD2GI,AOML,ARAON,South
2018-02-04T01:59:31Z,1517709571,2018,2,0,35.083,35.083,-73.4834,-114.6502,974.9,-0.47,-999.0,yes,yes,no,300234064823470,BD2GI,AOML,ARAON,South
2018-02-04T03:00:00Z,1517713200,2018,3,0,35.125,35.125,-73.1102,-115.992,974.6,-0.47,-999.0,yes,yes,no,300234064823470,BD2GI,AOML,ARAON,South